START_TIME,STEP,MOV.,M15,t_acc.,M20,t_acc.
1979-07-02 15:00:44.780 ,1,0,0.,24.0,0.,24.0
1979-07-02 15:01:08.780 ,2,1,0.,24.0,0.,24.0
1979-07-02 15:01:32.780 ,2,0,0.,24.0,0.,24.0
1979-07-02 15:01:56.780 ,3,1,0.,24.0,0.,24.0
1979-07-02 15:02:20.780 ,3,0,0.,24.0,0.,24.0
1979-07-02 15:02:44.780 ,4,1,0.,24.0,0.,24.0
1979-07-02 15:03:08.780 ,4,0,0.,24.0,0.,24.0
1979-07-02 15:03:32.780 ,5,1,0.,24.0,0.,24.0
1979-07-02 15:03:56.780 ,5,0,0.,24.0,0.,24.0
1979-07-02 15:04:20.780 ,6,1,0.,24.0,0.,24.0
1979-07-02 15:04:44.780 ,6,0,0.,24.0,0.,24.0
1979-07-02 15:05:08.780 ,7,1,0.,24.0,0.,24.0
1979-07-02 15:05:32.780 ,7,0,0.,24.0,0.,24.0
1979-07-02 15:05:56.780 ,7,1,0.,24.0,0.,24.0
1979-07-02 15:06:20.780 ,7,0,0.,24.0,0.,24.0
1979-07-02 15:06:44.780 ,6,1,0.,24.0,0.,24.0
1979-07-02 15:07:08.780 ,6,0,0.,24.0,0.,24.0
1979-07-02 15:07:32.780 ,5,1,0.,24.0,0.,24.0
1979-07-02 15:07:56.780 ,5,0,0.,24.0,0.,24.0
1979-07-02 15:08:20.780 ,4,1,0.,24.0,0.,24.0
1979-07-02 15:08:44.780 ,4,0,0.,24.0,0.,24.0
1979-07-02 15:09:08.780 ,3,1,0.,24.0,0.,24.0
1979-07-02 15:09:32.780 ,3,0,0.,24.0,0.,24.0
1979-07-02 15:09:56.780 ,2,1,0.,24.0,0.,24.0
1979-07-02 15:10:20.780 ,2,0,0.,24.0,0.,24.0
1979-07-02 15:10:44.780 ,1,1,0.,24.0,0.,24.0
1979-07-02 15:11:08.780 ,1,0,0.,24.0,0.,24.0
1979-07-02 15:11:32.780 ,0,1,0.,24.0,0.,24.0
1979-07-02 15:11:56.780 ,0,0,0.,24.0,0.,24.0
1979-07-02 15:12:20.780 ,0,1,0.,24.0,0.,24.0
1979-07-02 15:12:44.780 ,0,0,0.,24.0,0.,24.0
1979-07-02 15:13:08.780 ,1,1,0.,24.0,0.,24.0
1979-07-02 15:13:32.780 ,1,0,0.,24.0,0.,24.0
1979-07-02 15:13:56.780 ,2,1,0.,24.0,0.,24.0
1979-07-02 15:14:20.780 ,2,0,0.,24.0,0.,24.0
1979-07-02 15:14:44.780 ,3,1,0.,24.0,0.,24.0
1979-07-02 15:15:08.780 ,3,0,0.,24.0,0.,24.0
1979-07-02 15:15:32.780 ,4,1,0.,24.0,0.,24.0
1979-07-02 15:15:56.780 ,4,0,0.,24.0,0.,24.0
1979-07-02 15:16:20.780 ,5,1,0.,24.0,0.,24.0
1979-07-02 15:16:44.780 ,5,0,0.,24.0,0.,24.0
1979-07-02 15:17:08.780 ,6,1,0.,24.0,0.,24.0
1979-07-02 15:17:32.780 ,6,0,0.,24.0,0.,24.0
1979-07-02 15:17:56.780 ,7,1,0.,24.0,0.,24.0
1979-07-02 15:18:20.780 ,7,0,0.,24.0,0.,24.0
1979-07-02 15:18:44.780 ,7,1,0.,24.0,0.,24.0
1979-07-02 15:19:08.780 ,7,0,0.,24.0,0.,24.0
1979-07-02 15:19:32.780 ,6,1,0.,24.0,0.,24.0
1979-07-02 15:19:56.780 ,6,0,0.,24.0,0.,24.0
1979-07-02 15:20:20.780 ,5,1,0.,24.0,0.,24.0
1979-07-02 15:20:44.780 ,5,0,0.,24.0,0.,24.0
1979-07-02 15:21:08.780 ,4,1,0.,24.0,0.,24.0
1979-07-02 15:21:32.780 ,4,0,0.,24.0,0.,24.0
1979-07-02 15:21:56.780 ,3,1,0.,24.0,0.,24.0
1979-07-02 15:22:20.780 ,3,0,0.,24.0,0.,24.0
1979-07-02 15:22:44.780 ,2,1,0.,24.0,0.,24.0
1979-07-02 15:23:08.780 ,2,0,0.,24.0,0.,24.0
1979-07-02 15:23:32.780 ,1,1,0.,24.0,0.,24.0
1979-07-02 15:23:56.780 ,1,0,0.,24.0,0.,24.0
1979-07-02 15:24:20.780 ,0,1,0.,24.0,0.,24.0
1979-07-02 15:24:44.780 ,0,0,0.,24.0,0.,24.0
1979-07-02 15:25:08.780 ,0,1,0.,24.0,0.,24.0
1979-07-02 15:25:32.780 ,0,0,0.,24.0,0.,24.0
1979-07-02 15:25:56.780 ,1,1,0.,24.0,0.,24.0
1979-07-02 15:26:20.780 ,1,0,0.,24.0,0.,24.0
1979-07-02 15:26:44.780 ,2,1,0.,24.0,0.,24.0
1979-07-02 15:27:08.780 ,2,0,0.,24.0,0.,24.0
1979-07-02 15:27:32.780 ,3,1,0.,24.0,0.,24.0
1979-07-02 15:27:56.780 ,3,0,0.,24.0,0.,24.0
1979-07-02 15:28:20.780 ,4,1,0.,24.0,0.,24.0
1979-07-02 15:28:44.780 ,4,0,0.,24.0,0.,24.0
1979-07-02 15:29:08.780 ,5,1,0.,24.0,0.,24.0
1979-07-02 15:29:32.780 ,5,0,0.,24.0,0.,24.0
1979-07-02 15:29:56.780 ,6,1,0.,24.0,0.,24.0
1979-07-02 15:30:20.780 ,6,0,0.,24.0,0.,24.0
1979-07-02 15:30:44.780 ,7,0,0.,24.0,0.,24.0
1979-07-02 15:31:08.780 ,7,0,0.,24.0,0.,24.0
1979-07-02 15:31:32.780 ,3,1,0.,24.0,0.,24.0
1979-07-02 15:31:56.780 ,0,1,0.,24.0,0.,24.0
1979-07-02 15:32:20.780 ,4,1,0.,24.0,0.,24.0
1979-07-02 15:32:44.780 ,7,1,0.,24.0,0.,24.0
1979-07-02 15:33:08.780 ,3,1,0.,24.0,0.,24.0
1979-07-02 15:33:32.780 ,0,1,0.,24.0,0.,24.0
1979-07-02 15:33:56.780 ,4,1,0.,24.0,0.,24.0
1979-07-02 15:34:20.780 ,7,1,0.,24.0,0.,24.0
1979-07-02 15:34:44.780 ,3,1,0.,24.0,0.,24.0
1979-07-02 15:35:08.780 ,0,1,0.,24.0,0.,24.0
1979-07-02 15:35:32.780 ,4,1,0.,24.0,0.,24.0
1979-07-02 15:35:56.780 ,7,1,0.,24.0,0.,24.0
1979-07-02 15:36:20.780 ,3,1,0.,24.0,0.,24.0
1979-07-02 15:36:44.780 ,0,1,0.,24.0,0.,24.0
1979-07-02 15:37:08.780 ,4,1,0.,24.0,0.,24.0
1979-07-02 15:37:32.780 ,7,1,0.,24.0,0.,24.0
1979-07-02 15:37:56.780 ,3,1,0.,24.0,0.,24.0
1979-07-02 15:38:20.780 ,0,1,0.,24.0,0.,24.0
1979-07-02 15:38:44.780 ,4,1,0.,24.0,0.,24.0
1979-07-02 15:39:08.780 ,7,1,0.,24.0,0.,24.0
1979-07-02 15:39:32.780 ,3,1,0.,24.0,0.,24.0
1979-07-02 15:39:56.780 ,0,1,0.,24.0,0.,24.0
1979-07-02 15:40:20.780 ,4,1,0.,24.0,0.,24.0
1979-07-02 15:40:44.780 ,7,1,0.,24.0,0.,24.0
1979-07-02 15:41:08.780 ,3,1,0.,24.0,0.,24.0
1979-07-02 15:41:32.780 ,0,1,0.,24.0,0.,24.0
1979-07-02 15:41:56.780 ,0,0,0.,24.0,0.,24.0
1979-07-02 15:42:20.780 ,0,0,0.,24.0,0.,24.0
1979-07-02 15:42:44.780 ,5,1,0.,24.0,0.,24.0
1979-07-02 15:43:08.780 ,5,0,0.,24.0,0.,24.0
1979-07-02 15:43:32.780 ,4,1,0.,24.0,0.,24.0
1979-07-02 15:43:56.780 ,4,0,0.,24.0,0.,24.0
1979-07-02 15:44:20.780 ,3,1,0.,24.0,0.,24.0
1979-07-02 15:44:44.780 ,3,0,0.,24.0,0.,24.0
1979-07-02 15:45:08.780 ,2,1,0.,24.0,0.,24.0
1979-07-02 15:45:32.780 ,2,0,0.,24.0,0.,24.0
1979-07-02 15:45:56.780 ,1,1,0.,24.0,0.,24.0
1979-07-02 15:46:20.780 ,1,0,0.,24.0,0.,24.0
1979-07-02 15:46:44.780 ,0,1,0.,24.0,0.,24.0
1979-07-02 15:47:08.780 ,0,0,0.,24.0,0.,24.0
1979-07-02 15:47:32.780 ,0,1,0.,24.0,0.,24.0
1979-07-02 15:47:56.780 ,0,0,0.,24.0,0.,24.0
1979-07-02 15:48:20.780 ,1,1,0.,24.0,0.,24.0
1979-07-02 15:48:44.780 ,1,0,0.,24.0,0.,24.0
1979-07-02 15:49:08.780 ,2,1,0.,24.0,0.,24.0
1979-07-02 15:49:32.780 ,2,0,0.,24.0,0.,24.0
1979-07-02 15:49:56.780 ,3,1,0.,24.0,0.,24.0
1979-07-02 15:50:20.780 ,3,0,0.,24.0,0.,24.0
1979-07-02 15:50:44.780 ,4,1,0.,24.0,0.,24.0
1979-07-02 15:51:08.780 ,4,0,0.,24.0,0.,24.0
1979-07-02 15:51:32.780 ,5,1,0.,24.0,0.,24.0
1979-07-02 15:51:56.780 ,5,0,0.,24.0,0.,24.0
1979-07-02 15:52:20.780 ,6,1,0.,24.0,0.,24.0
1979-07-02 15:52:44.780 ,6,0,0.,24.0,0.,24.0
1979-07-02 15:53:08.780 ,7,1,0.,24.0,0.,24.0
1979-07-02 15:53:32.780 ,7,0,0.,24.0,0.,24.0
1979-07-02 15:53:56.780 ,7,1,0.,24.0,0.,24.0
1979-07-02 15:54:20.780 ,7,0,0.,24.0,0.,24.0
1979-07-02 15:54:44.780 ,6,1,0.,24.0,0.,24.0
1979-07-02 15:55:08.780 ,6,0,0.,24.0,0.,24.0
1979-07-02 15:55:32.780 ,5,1,0.,24.0,0.,24.0
1979-07-02 15:55:56.780 ,5,0,0.,24.0,0.,24.0
1979-07-02 15:56:20.780 ,4,1,0.,24.0,0.,24.0
1979-07-02 15:56:44.780 ,4,0,0.,24.0,0.,24.0
1979-07-02 15:57:08.780 ,3,1,0.,24.0,0.,24.0
1979-07-02 15:57:32.780 ,3,0,0.,24.0,0.,24.0
1979-07-02 15:57:56.780 ,2,1,0.,24.0,0.,24.0
1979-07-02 15:58:20.780 ,2,0,0.,24.0,0.,24.0
1979-07-02 15:58:44.780 ,1,1,0.,24.0,0.,24.0
1979-07-02 15:59:08.780 ,1,0,0.,24.0,0.,24.0
1979-07-02 15:59:32.780 ,0,1,0.,24.0,0.,24.0
1979-07-02 15:59:56.780 ,0,0,0.,24.0,0.,24.0
1979-07-02 16:00:20.780 ,0,1,0.,24.0,0.,24.0
1979-07-02 16:00:44.780 ,0,0,0.,24.0,0.,24.0
1979-07-02 16:01:08.780 ,1,1,0.,24.0,0.,24.0
1979-07-02 16:01:32.780 ,1,0,0.,24.0,0.,24.0
1979-07-02 16:01:56.780 ,2,1,0.,24.0,0.,24.0
1979-07-02 16:02:20.780 ,2,0,0.,24.0,0.,24.0
1979-07-02 16:02:44.780 ,3,1,0.,24.0,0.,24.0
1979-07-02 16:03:08.780 ,3,0,0.,24.0,0.,24.0
1979-07-02 16:03:32.780 ,4,1,0.,24.0,0.,24.0
1979-07-02 16:03:56.780 ,4,0,0.,24.0,0.,24.0
1979-07-02 16:04:20.780 ,5,1,0.,24.0,0.,24.0
1979-07-02 16:04:44.780 ,5,0,0.,24.0,0.,24.0
1979-07-02 16:05:08.780 ,6,1,0.,24.0,0.,24.0
1979-07-02 16:05:32.780 ,6,0,0.,24.0,0.,24.0
1979-07-02 16:05:56.780 ,7,1,0.,24.0,0.,24.0
1979-07-02 16:06:20.780 ,7,0,0.,24.0,0.,24.0
1979-07-02 16:06:44.780 ,7,1,0.,24.0,0.,24.0
1979-07-02 16:07:08.780 ,7,0,0.,24.0,0.,24.0
1979-07-02 16:07:32.780 ,6,1,0.,24.0,0.,24.0
1979-07-02 16:07:56.780 ,6,0,0.,24.0,0.,24.0
1979-07-02 16:08:20.780 ,5,1,0.,24.0,0.,24.0
1979-07-02 16:08:44.780 ,5,0,0.,24.0,0.,24.0
1979-07-02 16:09:08.780 ,4,1,0.,24.0,0.,24.0
1979-07-02 16:09:32.780 ,4,0,0.,24.0,0.,24.0
1979-07-02 16:09:56.780 ,3,1,0.,24.0,0.,24.0
1979-07-02 16:10:20.780 ,3,0,0.,24.0,0.,24.0
1979-07-02 16:10:44.780 ,2,1,0.,24.0,0.,24.0
1979-07-02 16:11:08.780 ,2,0,0.,24.0,0.,24.0
1979-07-02 16:11:32.780 ,1,1,0.,24.0,0.,24.0
1979-07-02 16:11:56.780 ,1,0,0.,24.0,0.,24.0
1979-07-02 16:12:20.780 ,0,1,0.,24.0,0.,24.0
1979-07-02 16:12:44.780 ,0,0,0.,24.0,0.,24.0
1979-07-02 16:13:08.780 ,0,1,0.,24.0,0.,24.0
1979-07-02 16:13:32.780 ,0,0,0.,24.0,0.,24.0
1979-07-02 16:13:56.780 ,1,1,0.,24.0,0.,24.0
1979-07-02 16:14:20.780 ,1,0,0.,24.0,0.,24.0
1979-07-02 16:14:44.780 ,2,1,0.,24.0,0.,24.0
1979-07-02 16:15:08.780 ,2,0,0.,24.0,0.,24.0
1979-07-02 16:15:32.780 ,3,1,0.,24.0,0.,24.0
1979-07-02 16:15:56.780 ,3,0,0.,24.0,0.,24.0
1979-07-02 16:16:20.780 ,4,1,0.,24.0,0.,24.0
1979-07-02 16:16:44.780 ,4,0,0.,24.0,0.,24.0
1979-07-02 16:17:08.780 ,5,1,0.,24.0,0.,24.0
1979-07-02 16:17:32.780 ,5,0,0.,24.0,0.,24.0
1979-07-02 16:17:56.780 ,6,1,0.,24.0,0.,24.0
1979-07-02 16:18:20.780 ,6,0,0.,24.0,0.,24.0
1979-07-02 16:18:44.780 ,7,0,0.,24.0,0.,24.0
1979-07-02 16:19:08.780 ,7,0,0.,24.0,0.,24.0
1979-07-02 16:19:32.780 ,3,1,0.,24.0,0.,24.0
1979-07-02 16:19:56.780 ,0,1,0.,24.0,0.,24.0
1979-07-02 16:20:20.780 ,4,1,0.,24.0,0.,24.0
1979-07-02 16:20:44.780 ,7,1,0.,24.0,0.,24.0
1979-07-02 16:21:08.780 ,3,1,0.,24.0,0.,24.0
1979-07-02 16:21:32.780 ,0,1,0.,24.0,0.,24.0
1979-07-02 16:21:56.780 ,4,1,0.,24.0,0.,24.0
1979-07-02 16:22:20.780 ,7,1,0.,24.0,0.,24.0
1979-07-02 16:22:44.780 ,3,1,0.,24.0,0.,24.0
1979-07-02 16:23:08.780 ,0,1,0.,24.0,0.,24.0
1979-07-02 16:23:32.780 ,4,1,0.,24.0,0.,24.0
1979-07-02 16:23:56.780 ,7,1,0.,24.0,0.,24.0
1979-07-02 16:24:20.780 ,0,0,,0,,0
1979-07-02 16:24:44.780 ,0,0,,0,,0
1979-07-02 16:25:08.780 ,0,0,0.,24.0,0.,24.0
1979-07-02 16:25:32.780 ,7,1,0.,24.0,0.,24.0
1979-07-02 16:25:56.780 ,3,1,0.,24.0,0.,24.0
1979-07-02 16:26:20.780 ,0,1,0.,24.0,0.,24.0
1979-07-02 16:26:44.780 ,4,1,0.,24.0,0.,24.0
1979-07-02 16:27:08.780 ,7,1,0.,24.0,0.,24.0
1979-07-02 16:27:32.780 ,3,1,0.,24.0,0.,24.0
1979-07-02 16:27:56.780 ,0,1,0.,24.0,0.,24.0
1979-07-02 16:28:20.780 ,4,1,0.,24.0,0.,24.0
1979-07-02 16:28:44.780 ,7,1,0.,24.0,0.,24.0
1979-07-02 16:29:08.780 ,3,1,0.,24.0,0.,24.0
1979-07-02 16:29:32.780 ,0,1,0.,24.0,0.,24.0
1979-07-02 16:29:56.780 ,0,0,0.,24.0,0.,24.0
1979-07-02 16:30:20.780 ,0,0,0.,24.0,0.,24.0
1979-07-02 16:30:44.780 ,5,1,0.,24.0,0.,24.0
1979-07-02 16:31:08.780 ,5,0,0.,24.0,0.,24.0
1979-07-02 16:31:32.780 ,4,1,0.,24.0,0.,24.0
1979-07-02 16:31:56.780 ,4,0,0.,24.0,0.,24.0
1979-07-02 16:32:20.780 ,3,1,0.,24.0,0.,24.0
1979-07-02 16:32:44.780 ,3,0,0.,24.0,0.,24.0
1979-07-02 16:33:08.780 ,2,1,0.,24.0,0.,24.0
1979-07-02 16:33:32.780 ,2,0,0.,24.0,0.,24.0
1979-07-02 16:33:56.780 ,1,1,0.,24.0,0.,24.0
1979-07-02 16:34:20.780 ,1,0,0.,24.0,0.,24.0
1979-07-02 16:34:44.780 ,0,1,0.,24.0,0.,24.0
1979-07-02 16:35:08.780 ,0,0,0.,24.0,0.,24.0
1979-07-02 16:35:32.780 ,0,1,0.,24.0,0.,24.0
1979-07-02 16:35:56.780 ,0,0,0.,24.0,0.,24.0
1979-07-02 16:36:20.780 ,1,1,0.,24.0,0.,24.0
1979-07-02 16:36:44.780 ,1,0,0.,24.0,0.,24.0
1979-07-02 16:37:08.780 ,2,1,0.,24.0,0.,24.0
1979-07-02 16:37:32.780 ,2,0,0.,24.0,0.,24.0
1979-07-02 16:37:56.780 ,3,1,0.,24.0,0.,24.0
1979-07-02 16:38:20.780 ,3,0,0.,24.0,0.,24.0
1979-07-02 16:38:44.780 ,4,1,0.,24.0,0.,24.0
1979-07-02 16:39:08.780 ,4,0,0.,24.0,0.,24.0
1979-07-02 16:39:32.780 ,5,1,0.,24.0,0.,24.0
1979-07-02 16:39:56.780 ,5,0,0.,24.0,0.,24.0
1979-07-02 16:40:20.780 ,6,1,0.,24.0,0.,24.0
1979-07-02 16:40:44.780 ,6,0,0.,24.0,0.,24.0
1979-07-02 16:41:08.780 ,7,1,0.,24.0,0.,24.0
1979-07-02 16:41:32.780 ,7,0,0.,24.0,0.,24.0
1979-07-02 16:41:56.780 ,7,1,0.,24.0,0.,24.0
1979-07-02 16:42:20.780 ,7,0,0.,24.0,0.,24.0
1979-07-02 16:42:44.780 ,6,1,0.,24.0,0.,24.0
1979-07-02 16:43:08.780 ,6,0,0.,24.0,0.,24.0
1979-07-02 16:43:32.780 ,5,1,0.,24.0,0.,24.0
1979-07-02 16:43:56.780 ,5,0,0.,24.0,0.,24.0
1979-07-02 16:44:20.780 ,4,1,0.,24.0,0.,24.0
1979-07-02 16:44:44.780 ,4,0,0.,24.0,0.,24.0
1979-07-02 16:45:08.780 ,3,1,0.,24.0,0.,24.0
1979-07-02 16:45:32.780 ,3,0,0.,24.0,0.,24.0
1979-07-02 16:45:56.780 ,2,1,0.,24.0,0.,24.0
1979-07-02 16:46:20.780 ,2,0,0.,24.0,0.,24.0
1979-07-02 16:46:44.780 ,1,1,0.,24.0,0.,24.0
1979-07-02 16:47:08.780 ,0,0,,0,,0
1979-07-02 17:05:14.180 ,0,0,0.,24.0,0.,24.0
1979-07-02 17:05:32.780 ,0,0,0.,24.0,0.,24.0
1979-07-02 17:05:56.780 ,6,1,0.,24.0,0.,24.0
1979-07-02 17:06:20.780 ,6,0,0.,24.0,0.,24.0
1979-07-02 17:06:44.780 ,7,0,0.,24.0,0.,24.0
1979-07-02 17:07:08.780 ,7,0,0.,24.0,0.,24.0
1979-07-02 17:07:32.780 ,3,1,0.,24.0,0.,24.0
1979-07-02 17:07:56.780 ,0,1,0.,24.0,0.,24.0
1979-07-02 17:08:20.780 ,4,1,0.,24.0,0.,24.0
1979-07-02 17:08:44.780 ,7,1,0.,24.0,0.,24.0
1979-07-02 17:09:08.780 ,3,1,0.,24.0,0.,24.0
1979-07-02 17:09:32.780 ,0,1,0.,24.0,0.,24.0
1979-07-02 17:09:56.780 ,4,1,0.,24.0,0.,24.0
1979-07-02 17:10:20.780 ,7,1,0.,24.0,0.,24.0
1979-07-02 17:10:44.780 ,3,1,0.,24.0,0.,24.0
1979-07-02 17:11:08.780 ,0,1,0.,24.0,0.,24.0
1979-07-02 17:11:32.780 ,4,1,0.,24.0,0.,24.0
1979-07-02 17:11:56.780 ,7,1,0.,24.0,0.,24.0
1979-07-02 17:12:20.780 ,3,1,0.,24.0,0.,24.0
1979-07-02 17:12:44.780 ,0,1,0.,24.0,0.,24.0
1979-07-02 17:13:08.780 ,4,1,0.,24.0,0.,24.0
1979-07-02 17:13:32.780 ,7,1,0.,24.0,0.,24.0
1979-07-02 17:13:56.780 ,3,1,0.,24.0,0.,24.0
1979-07-02 17:14:20.780 ,0,1,0.,24.0,0.,24.0
1979-07-02 17:14:44.780 ,4,1,0.,24.0,0.,24.0
1979-07-02 17:15:08.780 ,7,1,0.,24.0,0.,24.0
1979-07-02 17:15:32.780 ,3,1,0.,24.0,0.,24.0
1979-07-02 17:15:56.780 ,0,1,0.,24.0,1.,24.0
1979-07-02 17:16:20.780 ,4,1,0.,24.0,0.,24.0
1979-07-02 17:16:44.780 ,7,1,0.,24.0,0.,24.0
1979-07-02 17:17:08.780 ,3,1,0.,24.0,0.,24.0
1979-07-02 17:17:32.780 ,0,1,0.,24.0,0.,24.0
1979-07-02 17:17:56.780 ,0,0,0.,24.0,0.,24.0
1979-07-02 17:18:20.780 ,0,0,0.,24.0,0.,24.0
1979-07-02 17:18:44.780 ,5,1,0.,24.0,0.,24.0
1979-07-02 17:19:08.780 ,5,0,0.,24.0,0.,24.0
1979-07-02 17:19:32.780 ,4,1,0.,24.0,0.,24.0
1979-07-02 17:19:56.780 ,4,0,0.,24.0,0.,24.0
1979-07-02 17:20:20.780 ,3,1,0.,24.0,0.,24.0
1979-07-02 17:20:44.780 ,3,0,0.,24.0,0.,24.0
1979-07-02 17:21:08.780 ,2,1,0.,24.0,0.,24.0
1979-07-02 17:21:32.780 ,2,0,0.,24.0,0.,24.0
1979-07-02 17:21:56.780 ,1,1,0.,24.0,0.,24.0
1979-07-02 17:22:20.780 ,1,0,0.,24.0,0.,24.0
1979-07-02 17:22:44.780 ,0,1,0.,24.0,0.,24.0
1979-07-02 17:23:08.780 ,0,0,0.,24.0,0.,24.0
1979-07-02 17:23:32.780 ,0,1,0.,24.0,0.,24.0
1979-07-02 17:23:56.780 ,0,0,0.,24.0,0.,24.0
1979-07-02 17:24:20.780 ,1,1,0.,24.0,0.,24.0
1979-07-02 17:24:44.780 ,1,0,0.,24.0,0.,24.0
1979-07-02 17:25:08.780 ,2,1,0.,24.0,0.,24.0
1979-07-02 17:25:32.780 ,2,0,0.,24.0,0.,24.0
1979-07-02 17:25:56.780 ,3,1,0.,24.0,0.,24.0
1979-07-02 17:26:20.780 ,3,0,0.,24.0,0.,24.0
1979-07-02 17:26:44.780 ,4,1,0.,24.0,0.,24.0
1979-07-02 17:27:08.780 ,4,0,0.,24.0,0.,24.0
1979-07-02 17:27:32.780 ,5,1,0.,24.0,0.,24.0
1979-07-02 17:27:56.780 ,5,0,0.,24.0,0.,24.0
1979-07-02 17:28:20.780 ,6,1,0.,24.0,0.,24.0
1979-07-02 17:28:44.780 ,6,0,0.,24.0,0.,24.0
1979-07-02 17:29:08.780 ,7,1,0.,24.0,0.,24.0
1979-07-02 17:29:32.780 ,7,0,0.,24.0,0.,24.0
1979-07-02 17:29:56.780 ,7,1,0.,24.0,0.,24.0
1979-07-02 17:30:20.780 ,7,0,0.,24.0,0.,24.0
1979-07-02 17:30:44.770 ,6,1,0.,24.0,0.,24.0
1979-07-02 17:31:08.770 ,6,0,0.,24.0,0.,24.0
1979-07-02 17:31:32.770 ,5,1,0.,24.0,0.,24.0
1979-07-02 17:31:56.770 ,5,0,0.,24.0,0.,24.0
1979-07-02 17:32:20.770 ,4,1,0.,24.0,0.,24.0
1979-07-02 17:32:44.770 ,4,0,0.,24.0,0.,24.0
1979-07-02 17:33:08.770 ,3,1,0.,24.0,0.,24.0
1979-07-02 17:33:32.770 ,3,0,0.,24.0,0.,24.0
1979-07-02 17:33:56.770 ,2,1,0.,24.0,0.,24.0
1979-07-02 17:34:20.770 ,2,0,0.,24.0,0.,24.0
1979-07-02 17:34:44.770 ,1,1,0.,24.0,0.,24.0
1979-07-02 17:35:08.770 ,1,0,0.,24.0,0.,24.0
1979-07-02 17:35:32.770 ,0,1,0.,24.0,0.,24.0
1979-07-02 17:35:56.770 ,0,0,0.,24.0,0.,24.0
1979-07-02 17:36:20.770 ,0,1,0.,24.0,0.,24.0
1979-07-02 17:36:44.770 ,0,0,0.,24.0,0.,24.0
1979-07-02 17:37:08.770 ,1,1,0.,24.0,0.,24.0
1979-07-02 17:37:32.770 ,1,0,0.,24.0,0.,24.0
1979-07-02 17:37:56.770 ,2,1,0.,24.0,0.,24.0
1979-07-02 17:38:20.770 ,2,0,0.,24.0,0.,24.0
1979-07-02 17:38:44.770 ,3,1,0.,24.0,0.,24.0
1979-07-02 17:39:08.770 ,3,0,0.,24.0,0.,24.0
1979-07-02 17:39:32.770 ,4,1,0.,24.0,0.,24.0
1979-07-02 17:39:56.770 ,4,0,0.,24.0,0.,24.0
1979-07-02 17:40:20.770 ,5,1,0.,24.0,0.,24.0
1979-07-02 17:40:44.770 ,5,0,0.,24.0,0.,24.0
1979-07-02 17:41:08.770 ,6,1,0.,24.0,0.,24.0
1979-07-02 17:41:32.770 ,6,0,0.,24.0,0.,24.0
1979-07-02 17:41:56.770 ,7,1,0.,24.0,0.,24.0
1979-07-02 17:42:20.770 ,7,0,0.,24.0,0.,24.0
1979-07-02 17:42:44.770 ,7,1,0.,24.0,0.,24.0
1979-07-02 17:43:08.770 ,7,0,0.,24.0,0.,24.0
1979-07-02 17:43:32.770 ,6,1,0.,24.0,0.,24.0
1979-07-02 17:43:56.770 ,6,0,0.,24.0,0.,24.0
1979-07-02 17:44:20.770 ,5,1,0.,24.0,0.,24.0
1979-07-02 17:44:44.770 ,5,0,0.,24.0,0.,24.0
1979-07-02 17:45:08.770 ,4,1,0.,24.0,0.,24.0
1979-07-02 17:45:32.770 ,4,0,0.,24.0,0.,24.0
1979-07-02 17:45:56.770 ,3,1,0.,24.0,0.,24.0
1979-07-02 17:46:20.770 ,3,0,0.,24.0,0.,24.0
1979-07-02 17:46:44.770 ,2,1,0.,24.0,0.,24.0
1979-07-02 17:47:08.770 ,2,0,0.,24.0,0.,24.0
1979-07-02 17:47:32.770 ,1,1,0.,24.0,0.,24.0
1979-07-02 17:47:56.770 ,0,0,0.,24.0,0.,24.0
1979-07-02 17:48:20.770 ,0,1,0.,24.0,0.,24.0
1979-07-02 17:48:44.770 ,0,0,0.,24.0,0.,24.0
1979-07-02 17:49:08.770 ,0,1,0.,24.0,0.,24.0
1979-07-02 17:49:32.770 ,0,0,0.,24.0,0.,24.0
1979-07-02 17:49:56.770 ,1,1,0.,24.0,0.,24.0
1979-07-02 17:50:20.770 ,1,0,0.,24.0,0.,24.0
1979-07-02 17:50:44.770 ,2,1,0.,24.0,0.,24.0
1979-07-02 17:51:08.770 ,2,0,0.,24.0,0.,24.0
1979-07-02 17:51:32.770 ,3,1,0.,24.0,0.,24.0
1979-07-02 17:51:56.770 ,3,0,0.,24.0,0.,24.0
1979-07-02 17:52:20.770 ,4,1,0.,24.0,0.,24.0
1979-07-02 17:52:44.770 ,4,0,0.,24.0,0.,24.0
1979-07-02 17:53:08.770 ,5,1,0.,24.0,0.,24.0
1979-07-02 17:53:32.770 ,5,0,0.,24.0,0.,24.0
1979-07-02 17:53:56.770 ,6,1,0.,24.0,0.,24.0
1979-07-02 17:54:20.770 ,6,0,0.,24.0,0.,24.0
1979-07-02 17:54:44.770 ,7,0,0.,24.0,0.,24.0
1979-07-02 17:55:08.770 ,7,0,0.,24.0,0.,24.0
1979-07-02 17:55:32.770 ,3,1,0.,24.0,0.,24.0
1979-07-02 17:55:56.770 ,0,1,0.,24.0,0.,24.0
1979-07-02 17:56:20.770 ,4,1,0.,24.0,0.,24.0
1979-07-02 17:56:44.770 ,7,1,0.,24.0,0.,24.0
1979-07-02 17:57:08.770 ,3,1,0.,24.0,0.,24.0
1979-07-02 17:57:32.770 ,0,1,0.,24.0,0.,24.0
1979-07-02 17:57:56.770 ,4,1,0.,24.0,0.,24.0
1979-07-02 17:58:20.770 ,7,1,0.,24.0,0.,24.0
1979-07-02 17:58:44.770 ,3,1,0.,24.0,0.,24.0
1979-07-02 17:59:08.770 ,0,1,0.,24.0,0.,24.0
1979-07-02 17:59:32.770 ,4,1,0.,24.0,0.,24.0
1979-07-02 17:59:56.770 ,7,1,0.,24.0,0.,24.0
1979-07-02 18:00:20.770 ,3,1,0.,24.0,0.,24.0
